"Timestamp","TZ","WindDir_Mean (deg)","WindSpd_Mean (km/h)","WindSpd_Min (km/h)","WindSpd_Max (km/h)","Temp_Mean (deg)","RH_Mean (%)","MSLP_Mean (hPa)","Rain_Acc (mm)","Rain_Intensity (mm/h)","Hail_Acc (hits/cm2)","Hail_Intensity (hits/cm2hr)","Solar_Mean (W/m2)"
2022/11/09 00:00:00.015,n,154,4.32,2.52,7.92,17.4,67.3,1020.12,0,0,0,0,0.029602
2022/11/09 00:01:00.001,n,293,3.6,0.72,4.68,17.4,67.7,1020.12,0,0,0,0,0.027847
2022/11/09 00:02:00.001,n,302,0.72,0.36,1.08,17.4,67.6,1020.12,0,0,0,0,0.02697
2022/11/09 00:03:00.002,n,231,2.88,2.52,3.6,17.4,67.6,1020.12,0,0,0,0,0.02697
2022/11/09 00:04:00.006,n,313,1.44,0.72,2.16,17.5,68.3,1020.12,0,0,0,0,0.027847
2022/11/09 00:05:00.007,n,40,0.72,0.36,1.44,17.5,68,1020.12,0,0,0,0,0.027847
2022/11/09 00:06:00.009,n,260,1.8,1.44,2.16,17.5,68.3,1020.12,0,0,0,0,0.027847
2022/11/09 00:07:00.011,n,271,2.16,2.16,2.88,17.5,68.3,1020.12,0,0,0,0,0.027847
2022/11/09 00:08:00.014,n,292,2.52,1.8,3.24,17.4,68.3,1020.12,0,0,0,0,0.028725
2022/11/09 00:09:00.005,n,285,3.24,2.16,3.96,17.4,68.9,1020.02,0,0,0,0,0.02697
2022/11/09 00:10:00.001,n,243,2.52,2.16,2.88,17.4,68.7,1020.02,0,0,0,0,0.029602
2022/11/09 00:11:00.001,n,125,2.16,1.8,2.52,17.4,67.9,1020.02,0,0,0,0,0.02697
2022/11/09 00:12:00.002,n,315,0.72,0,1.08,17.3,68.1,1020.02,0,0,0,0,0.027847
2022/11/09 00:13:00.002,n,159,2.52,1.8,2.88,17.3,67.6,1020.02,0,0,0,0,0.028725
2022/11/09 00:14:00.004,n,103,1.08,0.36,2.16,17.3,67.5,1020.02,0,0,0,0,0.028725
2022/11/09 00:15:00.004,n,306,2.16,1.44,4.68,17.3,67.5,1019.92,0,0,0,0,0.029602
2022/11/09 00:16:00.005,n,142,1.08,0.36,3.6,17.3,67.8,1019.92,0,0,0,0,0.027847
2022/11/09 00:17:00.008,n,294,0.72,0.36,0.72,17.3,67.3,1019.92,0,0,0,0,0.027847
2022/11/09 00:18:00.010,n,176,5.76,3.96,10.08,17.2,67.1,1019.92,0,0,0,0,0.028725
2022/11/09 00:19:00.001,n,153,8.28,4.32,12.24,17.2,66.9,1019.92,0,0,0,0,0.026131
2022/11/09 00:20:00.001,n,143,2.52,1.44,2.88,17.2,66.9,1019.92,0,0,0,0,0.02697
2022/11/09 00:21:00.001,n,126,2.16,1.8,3.24,17.2,67.1,1019.92,0,0,0,0,0.028725
2022/11/09 00:22:00.001,n,208,6.48,5.4,10.08,17.2,67.1,1019.92,0,0,0,0,0.025253
2022/11/09 00:23:00.001,n,149,5.04,3.96,5.76,17.1,67,1019.82,0,0,0,0,0.025253
2022/11/09 00:24:00.002,n,208,1.08,0.36,1.8,17.1,67.2,1019.82,0,0,0,0,0.028725
2022/11/09 00:25:00.002,n,145,2.88,0.72,4.32,17.1,67.2,1019.82,0,0,0,0,0.024338
2022/11/09 00:26:00.003,n,207,6.12,4.68,8.28,17.1,67.2,1019.82,0,0,0,0,0.026131
2022/11/09 00:27:00.005,n,178,10.440002,6.12,13.32,17.1,67.2,1019.82,0,0,0,0,0.024338
2022/11/09 00:28:00.001,n,193,4.32,2.88,8.28,17.1,67.3,1019.82,0,0,0,0,0.022621
2022/11/09 00:29:00.002,n,221,3.96,2.52,4.68,17.1,67.3,1019.82,0,0,0,0,0.026131
2022/11/09 00:30:00.001,n,192,8.28,6.84,11.52,17.1,67.1,1019.82,0,0,0,0,0.024338
2022/11/09 00:31:00.004,n,163,11.52,7.2,14.76,17.1,67,1019.82,0,0,0,0,0.020027
2022/11/09 00:32:00.007,n,168,8.28,5.04,12.96,17,67.2,1019.82,0,0,0,0,0.022621
2022/11/09 00:33:00.011,n,155,0.72,0.36,1.08,17,67.3,1019.82,0,0,0,0,0.021744
2022/11/09 00:34:00.001,n,190,5.4,4.68,9.36,17,67.2,1019.82,0,0,0,0,0.024338
2022/11/09 00:35:00.003,n,165,4.32,3.6,9,17,67,1019.82,0,0,0,0,0.020905
2022/11/09 00:36:00.005,n,169,6.84,5.04,12.6,17,66.9,1019.82,0,0,0,0,0.027008
2022/11/09 00:37:00.001,n,186,8.28,6.12,10.8,17,67,1019.82,0,0,0,0,0.028763
2022/11/09 00:38:00.001,n,193,4.32,1.8,7.2,17,67.1,1019.82,0,0,0,0,0.032234
2022/11/09 00:39:00.002,n,45,0.72,0,2.52,17,67.3,1019.82,0,0,0,0,0.02964
2022/11/09 00:40:00.001,n,204,6.84,6.12,9,17,67.2,1019.82,0,0,0,0,0.027008
2022/11/09 00:41:00.010,n,175,5.4,5.04,10.08,17,67.2,1019.82,0,0,0,0,0.028763
2022/11/09 00:42:00.002,n,160,9.36,6.48,14.4,17,67.2,1019.72,0,0,0,0,0.025291
2022/11/09 00:43:00.003,n,193,5.4,3.24,11.16,16.9,67.4,1019.72,0,0,0,0,0.025291
2022/11/09 00:44:00.005,n,187,3.24,1.8,7.2,16.9,67.4,1019.72,0,0,0,0,0.027008
2022/11/09 00:45:00.013,n,195,2.52,2.16,3.24,16.9,67.5,1019.72,0,0,0,0,0.025291
2022/11/09 00:46:00.002,n,172,3.24,2.16,8.64,16.9,67.5,1019.72,0,0,0,0,0.028763
2022/11/09 00:47:00.001,n,193,7.56,5.04,11.52,16.9,67.5,1019.62,0,0,0,0,0.027008
2022/11/09 00:48:00.001,n,206,6.48,5.04,9.36,16.9,67.6,1019.62,0,0,0,0,0.027008
2022/11/09 00:49:00.001,n,244,1.44,0.72,2.52,16.9,67.7,1019.62,0,0,0,0,0.032234
2022/11/09 00:50:00.006,n,225,2.52,1.8,4.32,16.9,67.5,1019.62,0,0,0,0,0.030479
2022/11/09 00:51:00.001,n,263,2.88,2.52,3.6,16.9,67.5,1019.62,0,0,0,0,0.032234
2022/11/09 00:52:00.009,n,86,1.8,0.72,2.88,16.9,67.7,1019.62,0,0,0,0,0.033989
2022/11/09 00:53:00.016,n,135,2.52,0.72,4.68,16.8,67.6,1019.62,0,0,0,0,0.039215
2022/11/09 00:54:00.006,n,201,4.68,3.24,6.12,16.8,67.7,1019.62,0,0,0,0,0.040932
2022/11/09 00:55:00.001,n,167,9.36,6.48,11.88,16.8,67.8,1019.62,0,0,0,0,0.04528
2022/11/09 00:56:00.005,n,155,7.2,6.12,12.6,16.8,67.9,1019.62,0,0,0,0,0.044441
2022/11/09 00:57:00.002,n,179,5.4,3.6,8.64,16.8,68,1019.62,0,0,0,0,0.053139
2022/11/09 00:58:00.015,n,195,8.64,7.2,11.88,16.8,68.1,1019.62,0,0,0,0,0.049629
2022/11/09 00:59:00.008,n,173,6.84,4.68,10.08,16.700002,68.2,1019.62,0,0,0,0,0.051384
2022/11/09 01:00:00.003,n,143,2.52,2.16,3.6,16.700002,68.3,1019.62,0,0,0,0,0.026131
2022/11/09 01:01:00.003,n,291,0.72,0.36,1.44,16.700002,68.4,1019.52,0,0,0,0,0.034828
2022/11/09 01:02:00.005,n,151,2.52,0.72,7.56,16.700002,68.6,1019.52,0,0,0,0,0.033951
2022/11/09 01:03:00.016,n,191,7.56,5.76,10.08,16.700002,68.6,1019.52,0,0,0,0,0.033951
2022/11/09 01:04:00.002,n,182,8.64,5.04,10.440002,16.700002,68.7,1019.52,0,0,0,0,0.035706
2022/11/09 01:05:00.001,n,181,5.4,3.96,9.72,16.6,68.8,1019.52,0,0,0,0,0.0383
2022/11/09 01:06:00.002,n,182,4.68,3.24,9,16.6,68.9,1019.52,0,0,0,0,0.040054
2022/11/09 01:07:00.003,n,219,3.96,3.24,4.68,16.6,68.8,1019.52,0,0,0,0,0.040932
2022/11/09 01:08:00.011,n,161,4.32,1.44,6.48,16.6,68.8,1019.52,0,0,0,0,0.040932
2022/11/09 01:09:00.002,n,163,3.6,2.52,7.2,16.6,68.9,1019.52,0,0,0,0,0.042648
2022/11/09 01:10:00.010,n,191,6.48,4.68,8.28,16.6,69,1019.52,0,0,0,0,0.042648
2022/11/09 01:11:00.009,n,186,4.68,2.88,7.2,16.6,69,1019.52,0,0,0,0,0.046158
2022/11/09 01:12:00.024,n,139,5.04,4.68,5.76,16.6,69,1019.52,0,0,0,0,0.04528
2022/11/09 01:13:00.001,n,171,3.6,2.88,5.04,16.6,69.1,1019.42,0,0,0,0,0.047874
2022/11/09 01:14:00.007,n,226,2.88,1.44,3.6,16.5,69.2,1019.42,0,0,0,0,0.04528
2022/11/09 01:15:00.001,n,199,2.52,1.44,6.12,16.6,69.3,1019.42,0,0,0,0,0.047035
2022/11/09 01:16:00.001,n,188,2.16,1.08,4.68,16.6,69.2,1019.42,0,0,0,0,0.047874
2022/11/09 01:17:00.001,n,136,1.8,0.36,2.88,16.6,69.1,1019.42,0,0,0,0,0.047874
2022/11/09 01:18:00.009,n,128,2.16,0.72,5.04,16.5,69.1,1019.42,0,0,0,0,0.051384
2022/11/09 01:19:00.011,n,13,0.72,0.36,0.72,16.5,69.1,1019.42,0,0,0,0,0.027847
2022/11/09 01:20:00.012,n,243,0.72,0,4.32,16.5,69.1,1019.42,0,0,0,0,0.028725
2022/11/09 01:21:00.010,n,167,8.28,5.76,11.16,16.5,69.1,1019.42,0,0,0,0,0.033073
2022/11/09 01:22:00.001,n,224,1.8,1.44,2.16,16.5,68.9,1019.42,0,0,0,0,0.031319
2022/11/09 01:23:00.002,n,175,9,5.4,11.16,16.5,68.9,1019.42,0,0,0,0,0.031319
2022/11/09 01:24:00.002,n,173,2.16,1.44,3.96,16.5,69.2,1019.32,0,0,0,0,0.033951
2022/11/09 01:25:00.002,n,133,3.6,3.24,3.96,16.5,69.2,1019.32,0,0,0,0,0.031319
2022/11/09 01:26:00.007,n,157,5.4,5.04,5.76,16.5,69,1019.32,0,0,0,0,0.034828
2022/11/09 01:27:00.011,n,332,0.36,0.36,0.72,16.4,69,1019.32,0,0,0,0,0.033073
2022/11/09 01:28:00.003,n,186,7.2,5.04,10.8,16.4,69.1,1019.32,0,0,0,0,0.037422
2022/11/09 01:29:00.008,n,122,1.44,0.36,5.04,16.4,69.1,1019.22,0,0,0,0,0.033073
2022/11/09 01:30:00.017,n,197,4.68,3.24,5.76,16.4,69.3,1019.22,0,0,0,0,0.033073
2022/11/09 01:31:00.002,n,193,6.48,3.24,9.36,16.4,69.4,1019.22,0,0,0,0,0.034828
2022/11/09 01:32:00.002,n,159,2.16,0.72,6.48,16.4,69.4,1019.22,0,0,0,0,0.035706
2022/11/09 01:33:00.001,n,171,7.92,5.4,11.88,16.3,69.5,1019.22,0,0,0,0,0.033951
2022/11/09 01:34:00.001,n,208,6.12,5.04,7.2,16.3,69.4,1019.22,0,0,0,0,0.034828
2022/11/09 01:35:00.015,n,170,0.72,0.36,1.8,16.3,69.5,1019.22,0,0,0,0,0.035706
2022/11/09 01:36:00.007,n,176,7.92,4.68,9.72,16.3,69.3,1019.22,0,0,0,0,0.036545
2022/11/09 01:37:00.004,n,164,5.4,3.6,8.64,16.3,69.5,1019.22,0,0,0,0,0.039177
2022/11/09 01:38:00.013,n,179,11.52,6.48,14.4,16.3,69.2,1019.12,0,0,0,0,0.035706
2022/11/09 01:39:00.012,n,164,1.44,1.08,2.16,16.3,69.3,1019.12,0,0,0,0,0.036545
2022/11/09 01:40:00.003,n,166,11.88,9,12.96,16.3,69.3,1019.12,0,0,0,0,0.042648
2022/11/09 01:41:00.001,n,192,2.52,0.36,5.4,16.3,69.4,1019.12,0,0,0,0,0.033073
2022/11/09 01:42:00.001,n,178,5.76,2.88,8.64,16.200002,69.4,1019.12,0,0,0,0,0.0383
2022/11/09 01:43:00.001,n,172,10.440002,6.12,12.96,16.3,69.5,1019.12,0,0,0,0,0.036545
2022/11/09 01:44:00.005,n,179,10.8,6.12,14.76,16.200002,69.4,1019.12,0,0,0,0,0.0383
2022/11/09 01:45:00.011,n,205,6.12,3.96,12.6,16.200002,69.4,1019.12,0,0,0,0,0.040894
2022/11/09 01:46:00.006,n,185,6.48,2.88,8.64,16.200002,69.4,1019.12,0,0,0,0,0.037422
2022/11/09 01:47:00.009,n,182,8.64,5.4,13.32,16.200002,69.4,1019.12,0,0,0,0,0.037422
2022/11/09 01:48:00.023,n,226,2.88,2.16,3.96,16.200002,69.4,1019.12,0,0,0,0,0.036545
2022/11/09 01:49:00.001,n,185,3.96,2.52,7.56,16.200002,69.6,1019.12,0,0,0,0,0.040054
2022/11/09 01:50:00.002,n,171,13.32,10.08,17.64,16.200002,69.4,1019.12,0,0,0,0,0.036545
2022/11/09 01:51:00.002,n,206,7.2,5.4,8.28,16.200002,69.5,1019.12,0,0,0,0,0.037422
2022/11/09 01:52:00.005,n,181,5.76,3.6,8.28,16.200002,69.6,1019.12,0,0,0,0,0.039177
2022/11/09 01:53:00.001,n,233,1.08,0.72,1.8,16.200002,69.5,1019.12,0,0,0,0,0.037422
2022/11/09 01:54:00.001,n,218,1.8,1.08,2.52,16.200002,69.8,1019.02,0,0,0,0,0.034828
2022/11/09 01:55:00.008,n,193,5.76,3.96,7.92,16.200002,69.8,1019.02,0,0,0,0,0.0383
2022/11/09 01:56:00.014,n,258,6.48,2.88,7.92,16.200002,69.9,1019.02,0,0,0,0,0.035706
2022/11/09 01:57:00.005,n,255,4.68,0.36,5.76,16.200002,69.6,1019.02,0,0,0,0,0.035706
2022/11/09 01:58:00.004,n,112,1.08,0.36,3.96,16.200002,70.1,1019.02,0,0,0,0,0.036545
2022/11/09 01:59:00.001,n,289,3.24,2.88,3.6,16.200002,69.9,1019.02,0,0,0,0,0.036545
2022/11/09 02:00:00.001,n,275,1.08,0,4.32,16.200002,70,1019.02,0,0,0,0,0.0383
2022/11/09 02:01:00.001,n,275,1.08,0.36,2.16,16.200002,70.5,1019.12,0,0,0,0,0.037422
2022/11/09 02:02:00.002,n,185,3.96,3.24,6.12,16.200002,70.2,1019.02,0,0,0,0,0.033951
2022/11/09 02:03:00.002,n,184,2.16,0.72,5.76,16.200002,70,1019.02,0,0,0,0,0.035706
2022/11/09 02:04:00.004,n,239,4.68,2.52,5.76,16.1,70,1019.02,0,0,0,0,0.034828
2022/11/09 02:05:00.016,n,352,3.6,2.52,8.28,16.1,70,1019.02,0,0,0,0,0.040054
2022/11/09 02:06:00.014,n,167,1.08,0.36,2.52,16.1,70.4,1019.02,0,0,0,0,0.036545
2022/11/09 02:07:00.007,n,228,1.08,0.36,5.04,16.1,70.7,1019.02,0,0,0,0,0.041771
2022/11/09 02:08:00.001,n,183,1.44,0.72,5.4,16.1,70.3,1019.12,0,0,0,0,0.036545
2022/11/09 02:09:00.007,n,104,1.8,0.36,5.04,16.1,70.4,1019.12,0,0,0,0,0.037422
2022/11/09 02:10:00.002,n,270,2.88,2.52,3.24,16.1,70.4,1019.12,0,0,0,0,0.034828
2022/11/09 02:11:00.006,n,250,1.8,1.44,2.52,16.1,70.4,1019.12,0,0,0,0,0.0383
2022/11/09 02:12:00.007,n,268,4.32,3.6,5.04,16.1,70.4,1019.12,0,0,0,0,0.039177
2022/11/09 02:13:00.011,n,186,7.92,3.96,10.440002,16.1,70.2,1019.12,0,0,0,0,0.037422
2022/11/09 02:14:00.009,n,184,3.96,2.52,5.76,16.1,70.2,1019.12,0,0,0,0,0.036545
2022/11/09 02:15:00.007,n,38,1.44,0.36,5.4,16.1,70.3,1019.02,0,0,0,0,0.0383
2022/11/09 02:16:00.003,n,313,1.44,0.72,4.68,16.1,70.5,1019.02,0,0,0,0,0.033073
2022/11/09 02:17:00.001,n,162,10.08,6.84,15.12,16.1,70.3,1019.02,0,0,0,0,0.035706
2022/11/09 02:18:00.001,n,256,1.44,0.36,3.24,16,70.2,1019.02,0,0,0,0,0.036545
2022/11/09 02:19:00.003,n,280,4.68,3.6,6.12,16,70.4,1019.02,0,0,0,0,0.037422
2022/11/09 02:20:00.010,n,223,2.88,2.16,3.96,16,70.5,1019.02,0,0,0,0,0.037422
2022/11/09 02:21:00.004,n,189,2.16,1.8,2.88,16,70.5,1019.02,0,0,0,0,0.034828
2022/11/09 02:22:00.004,n,288,2.16,1.08,3.24,16,70.4,1019.02,0,0,0,0,0.035706
2022/11/09 02:23:00.012,n,184,3.24,2.88,3.6,16,70.4,1019.02,0,0,0,0,0.034828
2022/11/09 02:24:00.006,n,183,5.04,4.32,5.76,16,70.4,1019.02,0,0,0,0,0.037422
2022/11/09 02:25:00.001,n,200,1.8,1.08,3.96,16,70.4,1019.02,0,0,0,0,0.037422
2022/11/09 02:26:00.001,n,283,2.16,1.08,2.88,16,70.6,1019.02,0,0,0,0,0.036545
2022/11/09 02:27:00.005,n,317,2.16,0.72,7.2,16,70.8,1019.02,0,0,0,0,0.037422
2022/11/09 02:28:00.001,n,211,2.52,2.16,3.96,16,70.4,1018.92,0,0,0,0,0.035706
2022/11/09 02:29:00.009,n,269,4.32,3.6,5.4,16,70.4,1018.92,0,0,0,0,0.037422
2022/11/09 02:30:00.018,n,86,0.72,0.36,1.08,16,70.5,1018.92,0,0,0,0,0.034828
2022/11/09 02:31:00.012,n,148,3.96,2.16,8.28,16,70.1,1018.92,0,0,0,0,0.035706
2022/11/09 02:32:00.013,n,119,2.52,1.8,2.88,16,70,1018.92,0,0,0,0,0.0383
2022/11/09 02:33:00.008,n,215,2.88,2.16,3.6,16,70.1,1018.92,0,0,0,0,0.040894
2022/11/09 02:34:00.002,n,215,3.24,1.08,4.32,16.1,70,1018.92,0,0,0,0,0.040054
2022/11/09 02:35:00.001,n,298,2.16,1.08,2.88,16.1,69.9,1018.92,0,0,0,0,0.0383
2022/11/09 02:36:00.002,n,256,1.8,1.08,4.68,16.1,70.4,1018.92,0,0,0,0,0.036545
2022/11/09 02:37:00.008,n,190,6.48,4.68,10.08,16.1,69.7,1018.92,0,0,0,0,0.040894
2022/11/09 02:38:00.002,n,254,4.32,3.96,4.68,16.1,69.6,1018.92,0,0,0,0,0.042648
2022/11/09 02:39:00.005,n,218,2.52,0.72,5.04,16.1,70.1,1018.92,0,0,0,0,0.040894
2022/11/09 02:40:00.012,n,199,9.36,8.64,9.72,16.1,69.6,1018.92,0,0,0,0,0.040894
2022/11/09 02:41:00.008,n,190,7.92,5.76,12.24,16.1,69.5,1018.92,0,0,0,0,0.039177
2022/11/09 02:42:00.010,n,207,8.64,7.56,9,16.1,69.3,1018.92,0,0,0,0,0.039177
2022/11/09 02:43:00.001,n,122,2.16,0.36,7.56,16.1,69.3,1018.82,0,0,0,0,0.041771
2022/11/09 02:44:00.010,n,174,3.24,0.72,5.76,16.1,69.4,1018.82,0,0,0,0,0.041771
2022/11/09 02:45:00.002,n,163,10.440002,6.12,13.32,16.1,69,1018.82,0,0,0,0,0.04528
2022/11/09 02:46:00.001,n,146,10.440002,9,17.64,16.1,69.1,1018.82,0,0,0,0,0.040894
2022/11/09 02:47:00.001,n,173,9,6.12,14.04,16.1,69.2,1018.82,0,0,0,0,0.040054
2022/11/09 02:48:00.001,n,210,11.16,7.56,14.76,16.1,69.2,1018.82,0,0,0,0,0.042648
2022/11/09 02:49:00.007,n,160,16.56,12.24,19.8,16.1,69.3,1018.82,0,0,0,0,0.040894
2022/11/09 02:50:00.012,n,144,13.68,12.6,15.84,16.1,69.3,1018.82,0,0,0,0,0.04612
2022/11/09 02:51:00.020,n,287,4.68,3.6,5.76,16.1,69.3,1018.82,0,0,0,0,0.040894
2022/11/09 02:52:00.004,n,212,8.28,7.2,9.72,16.1,69.2,1018.82,0,0,0,0,0.041771
2022/11/09 02:53:00.004,n,218,9.36,9,10.440002,16.1,69.1,1018.82,0,0,0,0,0.041771
2022/11/09 02:54:00.001,n,168,7.92,6.84,11.88,16.1,69.2,1018.82,0,0,0,0,0.040894
2022/11/09 02:55:00.019,n,215,5.04,4.32,6.12,16.1,69.3,1018.82,0,0,0,0,0.039177
2022/11/09 02:56:00.002,n,172,10.440002,7.56,13.68,16.1,69.3,1018.82,0,0,0,0,0.039177
2022/11/09 02:57:00.009,n,177,7.2,4.32,9.36,16.1,69.3,1018.82,0,0,0,0,0.041771
2022/11/09 02:58:00.013,n,181,8.64,5.4,10.8,16.1,69.3,1018.82,0,0,0,0,0.040054
2022/11/09 02:59:00.006,n,161,6.84,3.24,12.24,16,69.5,1018.82,0,0,0,0,0.037422
2022/11/09 03:00:00.016,n,171,7.56,6.12,12.6,16,69.5,1018.82,0,0,0,0,0.033951
2022/11/09 03:01:00.002,n,210,5.4,4.68,8.28,16,69.6,1018.82,0,0,0,0,0.037422
2022/11/09 03:02:00.001,n,175,11.16,7.56,13.32,16,69.6,1018.82,0,0,0,0,0.039177
2022/11/09 03:03:00.002,n,83,1.8,1.08,2.16,16,69.6,1018.82,0,0,0,0,0.0383
2022/11/09 03:04:00.011,n,187,4.68,3.24,6.84,16,69.7,1018.82,0,0,0,0,0.036545
2022/11/09 03:05:00.010,n,166,4.32,1.44,7.92,16,69.7,1018.82,0,0,0,0,0.039177
2022/11/09 03:06:00.001,n,207,1.8,0.72,5.4,16,69.8,1018.82,0,0,0,0,0.034828
2022/11/09 03:07:00.014,n,132,2.88,0.72,8.64,16,69.9,1018.82,0,0,0,0,0.037422
2022/11/09 03:08:00.012,n,155,1.8,0.36,3.6,16,70,1018.82,0,0,0,0,0.036545
2022/11/09 03:09:00.010,n,172,3.96,1.08,6.84,15.9,70.1,1018.82,0,0,0,0,0.036545
2022/11/09 03:10:00.005,n,268,1.08,0.72,1.44,15.9,70.3,1018.82,0,0,0,0,0.040054
2022/11/09 03:11:00.001,n,177,9,4.68,11.52,15.9,70.3,1018.82,0,0,0,0,0.040894
2022/11/09 03:12:00.015,n,185,4.68,3.24,6.84,15.9,70.3,1018.82,0,0,0,0,0.034828
2022/11/09 03:13:00.002,n,46,2.16,0.36,6.12,15.9,70.3,1018.82,0,0,0,0,0.033073
2022/11/09 03:14:00.001,n,211,1.44,0.36,6.84,15.9,70.5,1018.82,0,0,0,0,0.033073
2022/11/09 03:15:00.009,n,124,7.92,6.48,10.08,15.9,70.5,1018.82,0,0,0,0,0.033951
2022/11/09 03:16:00.014,n,221,3.24,2.16,7.2,15.9,70.6,1018.82,0,0,0,0,0.032196
2022/11/09 03:17:00.009,n,167,6.48,2.88,9,15.9,70.5,1018.82,0,0,0,0,0.033073
2022/11/09 03:18:00.014,n,279,3.24,2.52,5.04,15.9,70.5,1018.82,0,0,0,0,0.033073
2022/11/09 03:19:00.008,n,166,1.08,0.36,3.6,15.9,70.8,1018.82,0,0,0,0,0.035706
2022/11/09 03:20:00.001,n,156,3.96,2.52,8.28,15.9,70.6,1018.82,0,0,0,0,0.031319
2022/11/09 03:21:00.002,n,322,1.44,0,5.04,15.9,70.7,1018.82,0,0,0,0,0.031319
2022/11/09 03:22:00.002,n,286,1.44,0.36,3.96,15.9,71,1018.72,0,0,0,0,0.033951
2022/11/09 03:23:00.001,n,224,1.8,1.08,3.6,15.9,70.9,1018.72,0,0,0,0,0.033951
2022/11/09 03:24:00.004,n,100,0.72,0,0.72,15.9,70.9,1018.72,0,0,0,0,0.030479
2022/11/09 03:25:00.011,n,139,2.52,0.36,3.96,15.9,70.5,1018.72,0,0,0,0,0.033951
2022/11/09 03:26:00.014,n,138,1.8,0.72,2.52,15.9,70.6,1018.72,0,0,0,0,0.030479
2022/11/09 03:27:00.015,n,120,3.6,2.52,5.4,15.8,70.7,1018.72,0,0,0,0,0.027847
2022/11/09 03:28:00.001,n,191,1.44,0.36,3.96,15.8,71,1018.72,0,0,0,0,0.02697
2022/11/09 03:29:00.001,n,255,0.36,0,0.72,15.8,70.9,1018.72,0,0,0,0,0.023499
2022/11/09 03:30:00.003,n,167,1.44,0.72,5.4,15.9,70.8,1018.72,0,0,0,0,0.025253
2022/11/09 03:31:00.005,n,299,1.8,1.08,2.16,15.9,70.7,1018.72,0,0,0,0,0.027847
2022/11/09 03:32:00.006,n,167,3.24,1.8,6.48,15.9,70.8,1018.72,0,0,0,0,0.025253
2022/11/09 03:33:00.007,n,290,1.8,1.44,2.16,15.8,70.8,1018.72,0,0,0,0,0.020905
2022/11/09 03:34:00.014,n,276,0.72,0,0.72,15.8,70.9,1018.72,0,0,0,0,0.018272
2022/11/09 03:35:00.001,n,21,1.44,0.72,3.96,15.8,71,1018.72,0,0,0,0,0.024376
2022/11/09 03:36:00.002,n,146,0.72,0.72,1.44,15.8,71.1,1018.72,0,0,0,0,0.031319
2022/11/09 03:37:00.002,n,161,3.6,1.8,5.76,15.7,71,1018.72,0,0,0,0,0.028725
2022/11/09 03:38:00.001,n,98,1.08,0.36,3.6,15.7,71.2,1018.72,0,0,0,0,0.024376
2022/11/09 03:39:00.001,n,112,1.08,0,2.16,15.7,71.2,1018.72,0,0,0,0,0.020027
2022/11/09 03:40:00.001,n,159,2.52,1.08,5.4,15.7,71.4,1018.72,0,0,0,0,0.022621
2022/11/09 03:41:00.004,n,190,3.24,2.16,6.48,15.6,71.4,1018.72,0,0,0,0,0.017395
2022/11/09 03:42:00.002,n,162,9,5.76,11.88,15.6,71.5,1018.72,0,0,0,0,0.017395
2022/11/09 03:43:00.002,n,154,3.24,2.88,7.2,15.6,71.7,1018.72,0,0,0,0,0.016556
2022/11/09 03:44:00.004,n,146,1.44,0.36,4.68,15.6,71.8,1018.72,0,0,0,0,0.023499
2022/11/09 03:45:00.006,n,137,4.68,3.24,6.12,15.5,72.1,1018.72,0,0,0,0,0.01915
2022/11/09 03:46:00.002,n,260,1.8,0.72,4.32,15.5,72.2,1018.72,0,0,0,0,0.021744
2022/11/09 03:47:00.001,n,177,6.84,3.24,9,15.5,72.2,1018.72,0,0,0,0,0.01915
2022/11/09 03:48:00.002,n,178,3.96,2.88,7.92,15.5,72.3,1018.72,0,0,0,0,0.01915
2022/11/09 03:49:00.002,n,93,1.44,0.36,4.68,15.5,72.6,1018.82,0,0,0,0,0.01564
2022/11/09 03:50:00.006,n,96,1.44,0.36,4.68,15.5,72.9,1018.72,0,0,0,0,0.026131
2022/11/09 03:51:00.010,n,165,4.32,1.08,6.12,15.5,72.6,1018.72,0,0,0,0,0.031357
2022/11/09 03:52:00.011,n,194,3.24,1.44,5.04,15.5,72.5,1018.72,0,0,0,0,0.025253
2022/11/09 03:53:00.014,n,167,2.52,0.72,5.4,15.5,72.4,1018.72,0,0,0,0,0.024376
2022/11/09 03:54:00.002,n,215,0.36,0.36,0.72,15.5,72.5,1018.72,0,0,0,0,0.022621
2022/11/09 03:55:00.001,n,1,1.08,0.72,1.44,15.5,72.6,1018.82,0,0,0,0,0.020905
2022/11/09 03:56:00.001,n,122,2.16,2.16,2.52,15.5,72.5,1018.82,0,0,0,0,0.020905
2022/11/09 03:57:00.002,n,89,2.16,0.36,5.76,15.4,72.5,1018.82,0,0,0,0,0.017395
2022/11/09 03:58:00.006,n,132,1.44,0.36,3.96,15.4,72.7,1018.82,0,0,0,0,0.018272
2022/11/09 03:59:00.008,n,199,0.36,0,0.72,15.4,72.8,1018.82,0,0,0,0,0.018272
2022/11/09 04:00:00.012,n,101,1.08,0,4.68,15.4,72.5,1018.82,0,0,0,0,0.022659
2022/11/09 04:01:00.013,n,277,3.6,2.88,3.96,15.4,72.6,1018.82,0,0,0,0,0.027008
2022/11/09 04:02:00.001,n,214,1.8,1.08,2.88,15.4,72.7,1018.92,0,0,0,0,0.030479
2022/11/09 04:03:00.005,n,178,2.52,0.72,3.96,15.3,72.9,1018.92,0,0,0,0,0.025253
2022/11/09 04:04:00.001,n,151,2.16,1.08,4.68,15.3,72.8,1018.92,0,0,0,0,0.027008
2022/11/09 04:05:00.001,n,71,1.44,0,3.96,15.3,73.3,1018.92,0,0,0,0,0.025253
2022/11/09 04:06:00.001,n,240,3.96,1.44,5.04,15.3,73.3,1018.92,0,0,0,0,0.023537
2022/11/09 04:07:00.003,n,163,5.76,3.6,7.2,15.3,73,1018.92,0,0,0,0,0.022659
2022/11/09 04:08:00.005,n,157,3.24,0.36,4.32,15.3,73.4,1018.92,0,0,0,0,0.025253
2022/11/09 04:09:00.006,n,289,2.88,1.44,3.6,15.3,73.2,1018.92,0,0,0,0,0.023537
2022/11/09 04:10:00.007,n,299,3.24,2.88,3.6,15.3,73.2,1018.92,0,0,0,0,0.022659
2022/11/09 04:11:00.008,n,305,1.44,1.08,1.8,15.3,73.2,1018.92,0,0,0,0,0.032234
2022/11/09 04:12:00.012,n,2,2.88,1.44,3.6,15.2,73.4,1018.92,0,0,0,0,0.033073
2022/11/09 04:13:00.002,n,86,2.52,0.36,5.4,15.2,73.5,1018.92,0,0,0,0,0.031357
2022/11/09 04:14:00.002,n,135,2.88,2.16,4.68,15.2,73.5,1018.92,0,0,0,0,0.029602
2022/11/09 04:15:00.001,n,335,3.96,2.88,6.84,15.2,73.5,1018.92,0,0,0,0,0.033073
2022/11/09 04:16:00.002,n,53,1.44,0.36,6.12,15.2,73.6,1018.92,0,0,0,0,0.034828
2022/11/09 04:17:00.001,n,187,2.52,0.36,5.4,15.2,73.5,1018.92,0,0,0,0,0.033951
2022/11/09 04:18:00.004,n,136,2.52,1.44,6.12,15.2,73.3,1018.92,0,0,0,0,0.033951
2022/11/09 04:19:00.006,n,9,1.8,0.36,5.4,15.2,73.1,1018.92,0,0,0,0,0.033073
2022/11/09 04:20:00.008,n,20,1.44,0.36,3.24,15.2,73.2,1018.92,0,0,0,0,0.033073
2022/11/09 04:21:00.009,n,332,0.36,0,0.72,15.2,73.2,1019.02,0,0,0,0,0.034828
2022/11/09 04:22:00.001,n,169,2.52,0.72,6.84,15.2,73.2,1019.02,0,0,0,0,0.0383
2022/11/09 04:23:00.001,n,153,6.12,3.24,9.36,15.2,73.3,1019.02,0,0,0,0,0.049629
2022/11/09 04:24:00.002,n,211,1.08,0.72,1.44,15.1,73.4,1019.02,0,0,0,0,0.06012
2022/11/09 04:25:00.005,n,190,2.52,1.08,3.6,15.1,73.5,1019.02,0,0,0,0,0.064468
2022/11/09 04:26:00.007,n,167,7.92,4.32,9.36,15.1,73.6,1019.02,0,0,0,0,0.074883
2022/11/09 04:27:00.001,n,134,1.8,0.36,5.4,15.1,73.5,1019.02,0,0,0,0,0.085335
2022/11/09 04:28:00.004,n,168,6.84,3.96,9,15.1,73.6,1019.02,0,0,0,0,0.099258
2022/11/09 04:29:00.006,n,125,1.8,1.44,1.8,15.1,73.6,1019.02,0,0,0,0,0.115814
2022/11/09 04:30:00.010,n,307,1.08,0.36,1.8,15,73.7,1019.02,0,0,0,0,0.143623
2022/11/09 04:31:00.003,n,21,0.72,0.36,1.44,15,73.9,1019.02,0,0,0,0,0.1828
2022/11/09 04:32:00.002,n,317,2.52,1.8,3.24,15,73.9,1019.02,0,0,0,0,0.237618
2022/11/09 04:33:00.007,n,111,2.88,1.08,4.32,15.1,73.9,1019.02,0,0,0,0,0.333214
2022/11/09 04:34:00.007,n,167,3.24,1.08,5.76,15.1,73.6,1019.02,0,0,0,0,0.478325
2022/11/09 04:35:00.010,n,177,4.68,0.72,8.28,15.1,73.6,1019.02,0,0,0,0,0.662308
2022/11/09 04:36:00.012,n,160,6.84,5.04,10.440002,15.1,73.5,1019.02,0,0,0,0,0.859146
2022/11/09 04:37:00.001,n,151,3.96,1.08,7.56,15.1,73.6,1019.02,0,0,0,0,1.036568
2022/11/09 04:38:00.002,n,40,2.52,1.8,2.52,15.1,73.6,1019.02,0,0,0,0,1.197281
2022/11/09 04:39:00.013,n,226,1.8,0.36,5.76,15.1,73.6,1019.02,0,0,0,0,1.358719
2022/11/09 04:40:00.002,n,176,3.6,1.8,5.76,15.1,73.5,1019.02,0,0,0,0,1.528702
2022/11/09 04:41:00.001,n,262,1.44,1.08,1.8,15.1,73.6,1019.12,0,0,0,0,1.712341
2022/11/09 04:42:00.001,n,344,3.96,1.8,8.64,15.1,73.6,1019.12,0,0,0,0,1.920891
2022/11/09 04:43:00.001,n,109,1.44,0.72,3.6,15.1,73.9,1019.02,0,0,0,0,2.156105
2022/11/09 04:44:00.003,n,281,2.88,2.52,3.6,15.1,73.8,1019.12,0,0,0,0,2.420387
2022/11/09 04:45:00.005,n,182,2.52,2.16,6.48,15.1,73.8,1019.12,0,0,0,0,2.72316
2022/11/09 04:46:00.008,n,289,3.24,2.88,3.6,15.1,73.6,1019.12,0,0,0,0,3.069382
2022/11/09 04:47:00.009,n,274,3.6,2.16,4.68,15.1,73.4,1019.12,0,0,0,0,3.438187
2022/11/09 04:48:00.012,n,135,2.52,1.8,2.88,15,73.4,1019.12,0,0,0,0,3.849373
2022/11/09 04:49:00.001,n,299,2.52,1.8,2.52,15,73.5,1019.12,0,0,0,0,4.305687
2022/11/09 04:50:00.001,n,305,2.52,2.16,3.24,15,73.6,1019.12,0,0,0,0,4.769478
2022/11/09 04:51:00.006,n,225,0.36,0,1.08,14.9,73.8,1019.12,0,0,0,0,5.240479
2022/11/09 04:52:00.002,n,162,1.08,0.36,5.04,14.9,73.9,1019.12,0,0,0,0,5.72506
2022/11/09 04:53:00.001,n,52,2.52,0.72,4.68,14.9,74.1,1019.12,0,0,0,0,6.227913
2022/11/09 04:54:00.004,n,310,2.88,2.16,3.24,14.9,74.3,1019.12,0,0,0,0,6.767884